Home > Weather > Tempe > Past weeks

Flag for USA Past Weather in Tempe, Arizona, USA — Yesterday and Last 2 Weeks

Now
74 °F

Passing clouds.


Feels Like: 75 °F
Forecast: 66 / 97 °F
Wind: 6 mph from Southeast

Location: Phoenix Sky Harbor International Airport

Current Time: May 31, 2016 at 7:24:38 AM

Latest Report: May 31, 2016 at 6:51 AM


Visibility: 10 mi

Pressure: 29.73 "Hg

Humidity: 15%

Dew Point: 24 °F

Location of TempeLocation

Past Weather in Tempe — Graph

°F

Tempe Temperature Yesterday

Maximum temperature yesterday: 92 °F (at 1:51 PM)
Minimum temperature yesterday: 71 °F (at 5:51 AM)
Average temperature yesterday: 83 °F

High & Low Weather Summary for the Past Weeks

 TemperatureHumidityPressure
High97 °F (May 20, 3:51 PM)44% (May 18, 4:51 AM)29.90 "Hg (May 18, 4:51 AM)
Low65 °F (May 26, 5:51 AM)5% (May 29, 3:51 PM)29.59 "Hg (May 20, 4:51 PM)
Average81 °F19%29.76 "Hg
* Reported May 16 5:51 AM — May 31 5:51 AM, Tempe, Weather by CustomWeather, © 2016

Note: Actual official high and low records may vary slightly from our data, if they occured in-between our weather recording intervals... More about our weather records

Advertising

Tempe Weather History for the Previous 24 Hours

Scroll right to see more
 ConditionsComfort  
Time TempWeatherWind HumidityBarometerVisibility
5:51 AM
Tue, May 31
70 °FPassing clouds.5 mph25%29.72 "Hg10 mi
4:51 AM70 °FPassing clouds.9 mph20%29.71 "Hg10 mi
3:51 AM71 °FClear.5 mph23%29.70 "Hg10 mi
2:51 AM74 °FClear.No wind19%29.69 "Hg10 mi
1:51 AM74 °FClear.No wind19%29.70 "Hg10 mi
12:51 AM77 °FClear.5 mph16%29.70 "Hg10 mi
11:51 PM
Mon, May 30
80 °FClear.No wind14%29.71 "Hg10 mi
10:51 PM81 °FClear.3 mph13%29.71 "Hg10 mi
9:51 PM84 °FClear.No wind11%29.72 "Hg10 mi
8:51 PM88 °FClear.7 mph7%29.70 "Hg10 mi
7:51 PM89 °FPassing clouds.9 mph8%29.70 "Hg10 mi
6:51 PM91 °FPassing clouds.7 mph7%29.69 "Hg10 mi
5:51 PM91 °FPassing clouds.10 mph7%29.70 "Hg10 mi
4:51 PM92 °FPassing clouds.7 mph7%29.70 "Hg10 mi
3:51 PM91 °FPassing clouds.3 mph7%29.72 "Hg10 mi
2:51 PM92 °FPassing clouds.7 mph6%29.74 "Hg10 mi
1:51 PM92 °FPassing clouds.5 mph5%29.76 "Hg10 mi
12:51 PM90 °FPassing clouds.8 mph7%29.79 "Hg10 mi
11:51 AM88 °FPassing clouds.6 mph8%29.81 "Hg10 mi
10:51 AM85 °FPassing clouds.5 mph7%29.83 "Hg10 mi
9:51 AM83 °FPassing clouds.5 mph7%29.85 "Hg10 mi
8:51 AM80 °FPassing clouds.No wind10%29.85 "Hg10 mi
7:51 AM75 °FPassing clouds.3 mph15%29.85 "Hg10 mi
Weather by CustomWeather, © 2016

See weather overviewHow to use our weather pages